Preview of NWS' New Version of Forecast
This preview is not operational and should not be used for support decisions.

Regional Weather Roundup (RWR)

Issued by National Weather Service (NWS)

                            
000
ASUS43 KTOP 231559
RWRKS 

WEATHER ROUNDUP FOR KANSAS
NATIONAL WEATHER SERVICE GOODLAND KS
1100 AM CDT TUE APR 23 2019

NOTE:  "FAIR" INDICATES FEW OR NO CLOUDS BELOW 12,000 FEET WITH NO
SIGNIFICANT WEATHER AND/OR OBSTRUCTIONS TO VISIBILITY.

KSZ001>006-013>018-027>032-041>047-231700-
NORTHWEST KANSAS
  
CITY           SKY/WX    TMP DP  RH WIND       PRES   REMARKS
GOODLAND       SUNNY    N/A N/A N/A VRB5      30.18F                  
HAYS           MOSUNNY   58  33  39 NE16G25   30.14F                  
HILL CITY      CLOUDY    57  36  45 N12       30.18F                  
RUSSELL        PTSUNNY   52  42  69 N12       30.13F                  
$$

KSZ061>065-074>080-084>089-231700-
SOUTHWEST KANSAS
  
CITY           SKY/WX    TMP DP  RH WIND       PRES   REMARKS
DODGE CITY     CLOUDY    53  34  48 N17       30.15R                  
GARDEN CITY    CLOUDY    51  37  58 N12       30.17R                  
GREAT BEND     CLOUDY    49  44  83 N15       30.14S                  
LIBERAL        CLOUDY    50  43  77 N10       30.18S                  
$$

KSZ066>073-081>083-090>101-231700-
SOUTHEAST KANSAS
  
CITY           SKY/WX    TMP DP  RH WIND       PRES   REMARKS
CHANUTE        LGT RAIN  55  50  83 N9        30.10S                  
COFFEYVILLE    RAIN      53  51  93 N12       30.07F FOG              
HUTCHINSON     CLOUDY    51  47  86 NE5       30.12R                  
MEDICINE LODGE   N/A     51  49  92 NE8       30.12R                  
NEWTON         CLOUDY    50  48  93 NE8       30.12R                  
PARSONS        RAIN      53  51  93 N6        30.11R FOG              
WICHITA INTL   LGT RAIN  54  49  83 NE7       30.11R                  
WICHITA JABRA  LGT RAIN  52  50  93 NE8       30.11S FOG              
WICHITA MCCONL LGT RAIN  52  52  99 NE8       30.11                   
WINFIELD       LGT RAIN  54  51  90 N16       30.08F                  
$$

KSZ007>012-019>026-033>040-048>060-102>105-231700-
NORTHEAST KANSAS
  
CITY           SKY/WX    TMP DP  RH WIND       PRES   REMARKS
CONCORDIA      CLOUDY    55  44  66 NE10      30.14S                  
EMPORIA        LGT RAIN  52  48  86 NE7       30.12R                  
LAWRENCE       CLOUDY    54  47  77 N3        30.11S                  
MANHATTAN      CLOUDY    51  45  79 N10       30.13R                  
OLATHE IND     CLOUDY    53  47  79 N9        30.11S                  
OLATHE EXE     CLOUDY    53  47  79 NE6       30.10S                  
SALINA         CLOUDY    52  45  77 NE8       30.13S                  
TOPEKA BILLARD CLOUDY    52  46  80 NE7       30.12R                  
TOPEKA FORBES  CLOUDY    53  46  77 NE8       30.11R                  
$$